DL4NBA-1 Weather Reports


Display with metric or nautical units.
time (UTC)temp
F
wind
direction
speed
MPH
gust
MPH
rain 1hr
in
rain 24hr
in
rain mn
in
humidity
%
barometer
mb
20260507213652 45 172 0.0 1.0 0.00 0.00 0.00
20260507212653 45 155 2.0 2.0 0.00 0.00 0.00
20260507211655 45 277 0.0 0.0 0.00 0.00 0.00
20260507211154 45 277 0.0 0.0 0.00 0.00 0.00
20260507210656 45 277 0.0 0.0 0.00 0.00 0.00
20260507210157 45 277 0.0 0.0 0.00 0.00 0.00
20260507205658 45 269 2.0 2.0 0.00 0.00 0.00
20260507205200 46 277 2.0 2.0 0.00 0.00 0.00
20260507204658 46 294 2.0 1.0 0.00 0.00 0.00
20260507204200 47 280 2.0 2.0 0.00 0.00 0.00
20260507203202 47 231 3.0 4.0 0.00 0.00 0.00
20260507201704 49 211 0.0 0.0 0.00 0.00 0.00
20260507201205 48 211 0.0 0.0 0.00 0.00 0.00
20260507195706 49 193 1.0 1.0 0.00 0.00 0.00
20260507195208 49 215 2.0 1.0 0.00 0.00 0.00
20260507194709 49 183 0.0 0.0 0.00 0.00 0.00
20260507194211 49 245 0.0 0.0 0.00 0.00 0.00
20260507193712 49 245 0.0 0.0 0.00 0.00 0.00
20260507193211 50 245 0.0 0.0 0.00 0.00 0.00
20260507192712 49 245 0.0 0.0 0.00 0.00 0.00
20260507191216 49 231 1.0 1.0 0.00 0.00 0.00
20260507190713 49 290 2.0 1.0 0.00 0.00 0.00
20260507190215 49 190 0.0 0.0 0.00 0.00 0.00
20260507185716 50 190 0.0 0.0 0.00 0.00 0.00
20260507184217 49 239 2.0 1.0 0.00 0.00 0.00
20260507183220 50 245 2.0 2.0 0.00 0.00 0.00
20260507182721 49 239 1.0 1.0 0.00 0.00 0.00
20260507180724 50 273 3.0 3.0 0.00 0.00 0.00
20260507174726 50 318 3.0 3.0 0.00 0.00 0.00
20260507174228 50 309 3.0 3.0 0.00 0.00 0.00
20260507173729 50 291 3.0 2.0 0.00 0.00 0.00
20260507173230 50 266 5.0 3.0 0.00 0.00 0.00
20260507171732 50 225 3.0 1.0 0.00 0.00 0.00
20260507171233 50 236 4.0 4.0 0.00 0.00 0.00
20260507164734 51 238 3.0 3.0 0.00 0.00 0.00
20260507164235 51 242 5.0 6.0 0.00 0.00 0.00
20260507162238 52 225 3.0 4.0 0.00 0.00 0.00
20260507161236 52 249 5.0 5.0 0.00 0.00 0.00
20260507160738 53 271 2.0 4.0 0.00 0.00 0.00
20260507155242 53 278 3.0 4.0 0.00 0.00 0.00
20260507154740 52 249 3.0 3.0 0.00 0.00 0.00
20260507154242 51 262 4.0 6.0 0.00 0.00 0.00
20260507153245 50 267 8.0 7.0 0.00 0.00 0.00
20260507152746 50 273 6.0 7.0 0.00 0.00 0.00
20260507151746 50 274 7.0 8.0 0.00 0.00 0.00
20260507150748 51 270 7.0 5.0 0.00 0.00 0.00
20260507145249 52 222 4.0 6.0 0.00 0.00 0.00
20260507144751 52 245 4.0 5.0 0.00 0.00 0.00
20260507144252 52 269 6.0 7.0 0.00 0.00 0.00
20260507143754 52 266 4.0 4.0 0.00 0.00 0.00
20260507142753 52 211 3.0 3.0 0.00 0.00 0.00
20260507141257 51 281 5.0 6.0 0.00 0.00 0.00
20260507140257 51 264 6.0 5.0 0.00 0.00 0.00
20260507135300 53 285 6.0 6.0 0.00 0.00 0.00
20260507134259 53 276 7.0 7.0 0.00 0.00 0.00
20260507133800 52 291 7.0 4.0 0.00 0.00 0.00
20260507133301 51 277 6.0 7.0 0.00 0.00 0.00
20260507131803 51 267 6.0 8.0 0.00 0.00 0.00
20260507130307 52 294 7.0 6.0 0.00 0.00 0.00
20260507125808 52 243 7.0 4.0 0.00 0.00 0.00
20260507125307 54 281 6.0 6.0 0.00 0.00 0.00
20260507124808 54 218 4.0 4.0 0.00 0.00 0.00
20260507124309 54 274 4.0 9.0 0.00 0.00 0.00
20260507122808 51 225 6.0 7.0 0.00 0.00 0.00
20260507122310 51 240 8.0 7.0 0.00 0.00 0.00
20260507115813 51 262 8.0 9.0 0.00 0.00 0.00
20260507112818 54 239 7.0 7.0 0.00 0.00 0.00
20260507111821 55 201 6.0 5.0 0.00 0.00 0.00
20260507111319 54 210 9.0 10.0 0.00 0.00 0.00
20260507110820 54 204 8.0 5.0 0.00 0.00 0.00
20260507110322 54 253 7.0 6.0 0.00 0.00 0.00
20260507105823 54 257 5.0 4.0 0.00 0.00 0.00
20260507105324 53 238 8.0 11.0 0.00 0.00 0.00
20260507104324 51 218 7.0 6.0 0.00 0.00 0.00
20260507103826 51 208 8.0 5.0 0.00 0.00 0.00
20260507103327 52 203 7.0 7.0 0.00 0.00 0.00
20260507102829 51 214 7.0 9.0 0.00 0.00 0.00
20260507102327 51 295 3.0 4.0 0.00 0.00 0.00
20260507101829 50 232 6.0 9.0 0.00 0.00 0.00
20260507101330 50 245 5.0 5.0 0.00 0.00 0.00
20260507100832 50 226 7.0 6.0 0.00 0.00 0.00
20260507100333 50 207 7.0 11.0 0.00 0.00 0.00
20260507095832 50 232 6.0 8.0 0.00 0.00 0.00
20260507095333 50 217 4.0 3.0 0.00 0.00 0.00
20260507094336 52 228 5.0 4.0 0.00 0.00 0.00
20260507093837 52 217 6.0 5.0 0.00 0.00 0.00
20260507093335 51 205 7.0 7.0 0.00 0.00 0.00
20260507092837 53 221 4.0 9.0 0.00 0.00 0.00
20260507092338 52 219 5.0 6.0 0.00 0.00 0.00
20260507091839 50 249 6.0 6.0 0.00 0.00 0.00
20260507091341 50 248 6.0 7.0 0.00 0.00 0.00
20260507090340 50 231 6.0 5.0 0.00 0.00 0.00
20260507085841 51 210 3.0 3.0 0.00 0.00 0.00
20260507085343 50 224 3.0 9.0 0.00 0.00 0.00
20260507084342 50 273 1.0 4.0 0.00 0.00 0.00
20260507083843 49 249 5.0 4.0 0.00 0.00 0.00
20260507083345 49 242 4.0 2.0 0.00 0.00 0.00
20260507082846 49 270 5.0 5.0 0.00 0.00 0.00
20260507081846 48 278 9.0 7.0 0.00 0.00 0.00
20260507081347 49 260 7.0 4.0 0.00 0.00 0.00
20260507080350 49 276 8.0 7.0 0.00 0.00 0.00
20260507075851 49 248 6.0 5.0 0.00 0.00 0.00
20260507073355 50 252 5.0 12.0 0.00 0.00 0.00
20260507072852 50 208 5.0 4.0 0.00 0.00 0.00
20260507072354 49 281 6.0 4.0 0.00 0.00 0.00
20260507070355 49 270 7.0 5.0 0.00 0.00 0.00
20260507065856 49 270 7.0 8.0 0.00 0.00 0.00
20260507065357 49 233 7.0 4.0 0.00 0.00 0.00
20260507063857 51 184 4.0 2.0 0.00 0.00 0.00
20260507062401 50 217 3.0 5.0 0.00 0.00 0.00
20260507061400 50 210 3.0 2.0 0.00 0.00 0.00
20260507060901 50 226 4.0 6.0 0.00 0.00 0.00
20260507054405 50 200 3.0 3.0 0.00 0.00 0.00
20260507053906 50 190 2.0 2.0 0.00 0.00 0.00
20260507053408 50 188 3.0 4.0 0.00 0.00 0.00
20260507052909 50 188 3.0 4.0 0.00 0.00 0.00
20260507051909 49 208 5.0 6.0 0.00 0.00 0.00
20260507051410 50 160 4.0 1.0 0.00 0.00 0.00
20260507050911 50 215 3.0 2.0 0.00 0.00 0.00
20260507050413 50 252 6.0 5.0 0.00 0.00 0.00
20260507045910 50 217 5.0 5.0 0.00 0.00 0.00
20260507043914 49 246 3.0 4.0 0.00 0.00 0.00
20260507043412 48 193 2.0 6.0 0.00 0.00 0.00
20260507042913 48 205 4.0 5.0 0.00 0.00 0.00
20260507042414 48 180 6.0 3.0 0.00 0.00 0.00
20260507034919 48 162 6.0 4.0 0.00 0.00 0.00
20260507033420 48 180 4.0 5.0 0.00 0.00 0.00
20260507032922 49 186 1.0 0.0 0.00 0.00 0.00
20260507031921 48 176 3.0 2.0 0.00 0.00 0.00
20260507031426 48 128 1.0 0.0 0.00 0.00 0.00
20260507030924 48 186 3.0 3.0 0.00 0.00 0.00
20260507025927 47 159 2.0 2.0 0.00 0.00 0.00
20260507025424 47 211 3.0 2.0 0.00 0.00 0.00
20260507024925 48 188 3.0 2.0 0.00 0.00 0.00
20260507024427 48 226 5.0 4.0 0.00 0.00 0.00
20260507023928 48 155 3.0 3.0 0.00 0.00 0.00
20260507023430 49 203 3.0 4.0 0.00 0.00 0.00
20260507022927 48 240 5.0 5.0 0.00 0.00 0.00
20260507022429 49 280 5.0 2.0 0.00 0.00 0.00
20260507021930 49 187 3.0 6.0 0.00 0.00 0.00
20260507021431 49 190 4.0 6.0 0.00 0.00 0.00
20260507020933 49 181 6.0 5.0 0.00 0.00 0.00
20260507020431 49 174 6.0 6.0 0.00 0.00 0.00
20260507015932 49 177 4.0 4.0 0.00 0.00 0.00
20260507014935 49 163 5.0 4.0 0.00 0.00 0.00
20260507014436 49 181 5.0 4.0 0.00 0.00 0.00
20260507013436 49 174 3.0 4.0 0.00 0.00 0.00
20260507012937 50 205 2.0 4.0 0.00 0.00 0.00
20260507011940 49 246 1.0 1.0 0.00 0.00 0.00
20260507011438 49 210 3.0 5.0 0.00 0.00 0.00
20260507010939 49 172 0.0 0.0 0.00 0.00 0.00
20260507010440 50 193 0.0 0.0 0.00 0.00 0.00
20260507005442 49 194 3.0 3.0 0.00 0.00 0.00
20260507004941 49 134 2.0 1.0 0.00 0.00 0.00
20260507003944 49 210 4.0 4.0 0.00 0.00 0.00
20260507002445 50 228 8.0 6.0 0.00 0.00 0.00
20260507001947 50 249 7.0 13.0 0.00 0.00 0.00
20260507001448 50 218 3.0 3.0 0.00 0.00 0.00
20260507000949 50 204 7.0 5.0 0.00 0.00 0.00
20260507000451 50 201 7.0 5.0 0.00 0.00 0.00
20260506235948 50 186 6.0 3.0 0.00 0.00 0.00
20260506235450 50 193 5.0 3.0 0.00 0.00 0.00
20260506234951 50 200 7.0 7.0 0.00 0.00 0.00
20260506234453 50 218 3.0 6.0 0.00 0.00 0.00
20260506233954 50 203 3.0 8.0 0.00 0.00 0.00
20260506233451 50 191 6.0 9.0 0.00 0.00 0.00
20260506232951 50 228 4.0 4.0 0.00 0.00 0.00
20260506231953 50 173 4.0 2.0 0.00 0.00 0.00
20260506231455 51 238 3.0 6.0 0.00 0.00 0.00
20260506230953 51 217 5.0 8.0 0.00 0.00 0.00
20260506225457 51 208 5.0 3.0 0.00 0.00 0.00
20260506224959 51 197 5.0 5.0 0.00 0.00 0.00
20260506224456 51 200 8.0 4.0 0.00 0.00 0.00
20260506223459 51 212 5.0 4.0 0.00 0.00 0.00
20260506222502 51 207 7.0 5.0 0.00 0.00 0.00
20260506221959 51 177 4.0 8.0 0.00 0.00 0.00
20260506221501 51 187 6.0 3.0 0.00 0.00 0.00
20260506221002 51 203 4.0 6.0 0.00 0.00 0.00
20260506220504 51 172 2.0 2.0 0.00 0.00 0.00
20260506215502 52 169 1.0 3.0 0.00 0.00 0.00
20260506215004 52 191 0.0 0.0 0.00 0.00 0.00
20260506214505 52 218 4.0 2.0 0.00 0.00 0.00
20260506214006 52 174 2.0 4.0 0.00 0.00 0.00